TimeCST,TemperatureF,Dew PointF,Humidity,Sea Level PressureIn,VisibilityMPH,Wind Direction,Wind SpeedMPH,Gust SpeedMPH,PrecipitationIn,Events,Conditions,WindDirDegrees,DateUTC
12:00 AM,68,61,73,29.94,12,NE,8.1,,,,Scattered Clouds,50,2013-07-30 06:00:00
12:00 AM,68.0,66.2,94,30.09,6.2,NE,8.1,-,N/A,,Scattered Clouds,50,2013-07-30 06:00:00
1:00 AM,69.8,60.8,73,30.07,6.2,ENE,5.8,-,N/A,,Scattered Clouds,60,2013-07-30 07:00:00
2:00 AM,69.8,60.8,73,30.05,6.2,ENE,4.6,-,N/A,,Scattered Clouds,60,2013-07-30 08:00:00
3:00 AM,69,61,68,29.88,12,East,5.8,,,,Scattered Clouds,90,2013-07-30 09:00:00
3:00 AM,69.8,60.8,73,30.05,6.2,ENE,6.9,-,N/A,,Scattered Clouds,70,2013-07-30 09:00:00
5:00 AM,69.8,60.8,73,30.05,6.2,ESE,15.0,-,N/A,,Scattered Clouds,120,2013-07-30 11:00:00
6:00 AM,70,60,63,29.89,12,ESE,10.4,,,,Clear,110,2013-07-30 12:00:00
6:00 AM,69.8,60.8,73,30.07,-9999.0,ESE,10.4,-,N/A,,Clear,110,2013-07-30 12:00:00
7:00 AM,71.6,60.8,69,30.08,-9999.0,ESE,11.5,-,N/A,,Clear,120,2013-07-30 13:00:00
8:00 AM,73.4,62.6,69,30.09,-9999.0,ESE,5.8,-,N/A,,Clear,110,2013-07-30 14:00:00
9:00 AM,77,63,54,,12,East,5.8,,,,,80,2013-07-30 15:00:00
9:00 AM,68.0,62.6,83,30.11,-9999.0,East,5.8,-,N/A,,Clear,80,2013-07-30 15:00:00
10:00 AM,80.6,62.6,54,30.10,6.2,ENE,10.4,-,N/A,,Mostly Cloudy,70,2013-07-30 16:00:00
11:00 AM,78.8,62.6,57,30.09,6.2,East,10.4,-,N/A,,Mostly Cloudy,80,2013-07-30 17:00:00
12:00 PM,77,62,50,29.92,9,East,12.7,,,,Overcast,80,2013-07-30 18:00:00
12:00 PM,77.0,62.6,61,30.09,6.2,East,12.7,-,N/A,,Mostly Cloudy,80,2013-07-30 18:00:00
1:00 PM,75.2,60.8,61,30.09,6.2,East,10.4,-,N/A,Rain,Light Rain,100,2013-07-30 19:00:00
2:00 PM,75.2,62.6,65,30.06,6.2,ESE,6.9,-,N/A,,Mostly Cloudy,120,2013-07-30 20:00:00
3:00 PM,131,61,6,29.90,12,East,11.5,,,,Overcast,100,2013-07-30 21:00:00
3:00 PM,77.0,60.8,57,30.05,6.2,East,11.5,-,N/A,,Mostly Cloudy,100,2013-07-30 21:00:00
4:00 PM,77.0,62.6,61,30.03,6.2,ESE,4.6,-,N/A,,Mostly Cloudy,110,2013-07-30 22:00:00
4:30 PM,73.4,69.8,88,30.03,6.2,SSW,4.6,-,N/A,,Mostly Cloudy,200,2013-07-30 22:30:00
5:00 PM,71.6,68.0,88,30.04,6.2,WSW,12.7,-,N/A,,Mostly Cloudy,250,2013-07-30 23:00:00
6:00 PM,70,69,94,29.90,3,WSW,5.8,,,,Mist,250,2013-07-31 00:00:00
6:00 PM,69.8,68.0,94,30.06,3.1,WSW,5.8,-,N/A,,Mostly Cloudy,250,2013-07-31 00:00:00
7:00 PM,69.8,68.0,94,30.07,1.9,South,4.6,-,N/A,,Mostly Cloudy,190,2013-07-31 01:00:00
8:00 PM,69.8,68.0,94,30.08,5.0,NW,3.5,-,N/A,Fog,Fog,310,2013-07-31 02:00:00
9:00 PM,69,65,84,29.92,12,ENE,3.5,,,,Scattered Clouds,60,2013-07-31 03:00:00
9:00 PM,69.8,64.4,83,30.07,6.2,ENE,3.5,-,N/A,,Partly Cloudy,60,2013-07-31 03:00:00
10:00 PM,69.8,62.6,78,30.09,-9999.0,North,4.6,-,N/A,,Clear,360,2013-07-31 04:00:00
11:00 PM,69.8,60.8,73,30.07,-9999.0,East,3.5,-,N/A,,Clear,100,2013-07-31 05:00:00